Maryland Science Center, MD

12:29 PM EST on December 05, 2019 (GMT -0500)
Maryland Science Center

Weather History for KDMH - October, 2019

Change the Weather History Date:

Sunday, October 13, 2019

  Actual Average Record
Temperature  
Mean Temperature 60 °F 61 °F  
Max Temperature 65 °F 69 °F 81 °F (2008)
Min Temperature 54 °F 53 °F 45 °F (2012)
Degree Days  
Heating Degree Days 5 5  
Month to date heating degree days 16 51  
Since 1 July heating degree days 16 69  
Cooling Degree Days 0 1  
Month to date cooling degree days 57 28  
Year to date cooling degree days 2046 1653  
Growing Degree Days 10 (Base 50)    
Moisture  
Dew Point 44 °F    
Average Humidity 63    
Maximum Humidity 84    
Minimum Humidity 42    
Precipitation  
Precipitation 0.00 in 0.10 in 0.24 in (2005)
Month to date precipitation 0.18 1.41  
Year to date precipitation 31.05 32.87  
Sea Level Pressure  
Sea Level Pressure 30.07 in    
Wind  
Wind Speed - (North)    
Max Wind Speed -    
Max Gust Speed -    
T = Trace of Precipitation, MM = Missing Value Source: NWS Daily Summary

Daily Weather History Graph

Daily Weather History Graph

Search for Another Location

Airport or City:

Astronomy

Oct. 13, 2019 Rise Set
Actual Time 7:13 AM EDT 6:30 PM EDT
Civil Twilight 6:47 AM EDT 6:57 PM EDT
Nautical Twilight 6:15 AM EDT 7:28 PM EDT
Astronomical Twilight 5:44 AM EDT 7:59 PM EDT
Moon 6:52 PM EDT (10/13) 6:46 AM EDT (10/13)
Length of Visible Light 12h 10m
Length of Day
11h 16m
Full, 100% of the Moon is Illuminated
Oct 13
Full
Oct 13
Full
Oct 21
Last Quarter
Oct 27
New
Nov 4
First Quarter

Hourly Weather History & Observations

Time (EDT) Temp. Dew Point Humidity Pressure Visibility Wind Dir Wind Speed Gust Speed Precip Events Conditions
12:54 AM 61.0 °F 42.1 °F 50% 30.06 in - North - - N/A   Unknown
1:54 AM 59.0 °F 42.1 °F 53% 30.08 in - North - - N/A   Unknown
2:54 AM 57.0 °F 39.9 °F 53% 30.09 in - North - - N/A   Unknown
3:54 AM 55.9 °F 39.9 °F 55% 30.08 in - North - - N/A   Unknown
4:54 AM 55.9 °F 39.0 °F 53% 30.10 in - North - - N/A   Unknown
5:54 AM 55.0 °F 37.9 °F 53% 30.12 in - North - - N/A   Unknown
6:54 AM 55.0 °F 37.9 °F 53% 30.12 in - North - - N/A   Unknown
7:54 AM 55.0 °F 37.0 °F 51% 30.15 in - North - - N/A   Unknown
8:54 AM 55.0 °F 37.0 °F 51% 30.14 in - North - - N/A   Unknown
9:54 AM 57.0 °F 37.0 °F 47% 30.13 in - North - - N/A   Unknown
12:54 PM 64.0 °F 43.0 °F 46% 30.10 in - North - - N/A   Unknown
1:54 PM 63.0 °F 44.1 °F 50% 30.08 in - North - - N/A   Unknown
2:54 PM 64.0 °F 41.0 °F 43% 30.06 in - North - - N/A   Unknown
3:54 PM 63.0 °F 44.1 °F 50% 30.05 in - North - - N/A   Unknown
4:54 PM 63.0 °F 44.1 °F 50% 30.04 in - North - - N/A   Unknown
5:54 PM 62.1 °F 46.9 °F 58% 30.03 in - North - - N/A   Unknown
6:54 PM 61.0 °F 50.0 °F 67% 30.04 in - North - - N/A   Unknown
7:54 PM 61.0 °F 50.0 °F 67% 30.03 in - North - - N/A   Unknown
8:54 PM 61.0 °F 53.1 °F 75% 30.02 in - North - - N/A   Unknown
9:54 PM 61.0 °F 54.0 °F 78% 30.02 in - North - - N/A   Unknown
10:54 PM 61.0 °F 54.0 °F 78% 30.01 in - North - - N/A   Unknown
11:54 PM 61.0 °F 55.0 °F 81% 30.01 in - North - - N/A   Unknown